{"data":{"norad_id":61005,"epoch":"2026-09-21T22:20:26.780928Z","epoch_age_seconds":68460,"freshness":"FRESH","line1":"1 61005U 24158R   26264.93086552  .00000241  00000+0  18275-4 0  9993","line2":"2 61005  53.1605 230.6849 0001442  93.9270 266.1898 15.34408603115671","mean_motion":15.34408603,"eccentricity":0.0001442,"inclination_deg":53.1605,"raan_deg":230.6849,"arg_perigee_deg":93.927,"mean_anomaly_deg":266.1898,"bstar":1.8275e-5,"rev_number":11567,"period_min":93.847231903196,"perigee_km":461.6912249221,"apogee_km":463.66411587305,"semimajor_km":6840.8146703976,"source":"CELESTRAK","updated_at":"2026-09-22T09:00:49.297622Z"}}